This demonstration page uses our WeatherBlox Daily Observations layout. Learn more.

Left ArrowRight Arrow

31.84235, -102.49876

Hourly Observations for July 8, 2022

Temp ( °F °C ) Dew Point ( °F °C ) Humidity (%) Winds ( mph kmh ) Pressure ( in mb ) Visibility ( mi km ) Precip ( " mm )
12:53 am 00:53 Clear 83 28.3 58 14.4 43 43 NNW 8 13 29.91 1013 10 16 0.00 0.00
1:53 am 01:53 Clear 83 28.3 57 13.9 41 41 NE 6 9 29.91 1013 10 16 0.00 0.00
2:53 am 02:53 Clear 81 27.2 57 13.9 44 44 Calm 29.91 1013 10 16 0.00 0.00
3:53 am 03:53 Clear 78 25.6 57 13.9 48 48 Calm 29.90 1012 10 16 0.00 0.00
4:53 am 04:53 Clear 77 25 57 13.9 50 50 SSW 5 7 29.90 1012 10 16 0.00 0.00
5:53 am 05:53 Clear 77 25 57 13.9 50 50 Calm 29.91 1013 10 16 0.00 0.00
6:53 am 06:53 Sunny 80 26.7 57 13.9 45 45 SSW 3 6 29.93 1014 10 16 0.00 0.00
7:53 am 07:53 Sunny 81 27.2 57 13.9 44 44 SSW 6 9 29.96 1014 10 16 0.00 0.00
8:53 am 08:53 Sunny 84 28.9 60 15.6 44 44 SSW 15 24 29.97 1015 10 16 0.00 0.00
9:53 am 09:53 Sunny 85 29.4 64 17.8 50 50 SSW 16 26 29.99 1016 10 16 0.00 0.00
10:53 am 10:53 Sunny 89 31.7 63 17.2 42 42 SW 8 13 29.99 1016 10 16 0.00 0.00
11:53 am 11:53 Sunny 91 32.8 62 16.7 38 38 VRB 5 7 30.01 1016 10 16 0.00 0.00
12:53 pm 12:53 Sunny 94 34.4 59 15 31 31 ESE 6 9 29.99 1016 10 16 0.00 0.00
1:53 pm 13:53 Sunny 97 36.1 59 15 28 28 E 8 13 29.98 1015 10 16 0.00 0.00
2:53 pm 14:53 Mostly Sunny 97 36.1 57 13.9 26 26 VRB 5 7 29.96 1015 10 16 0.00 0.00
3:53 pm 15:53 Sunny 99 37.2 54 12.2 22 22 undefined N/A 29.94 1014 10 16 0.00 0.00
4:53 pm 16:53 Sunny 100 37.8 48 8.9 17 17 E 9 15 29.93 1014 10 16 0.00 0.00
5:53 pm 17:53 Sunny 101 38.3 48 8.9 17 17 VRB 3 6 29.91 1013 10 16 0.00 0.00
6:53 pm 18:53 Sunny 100 37.8 55 12.8 22 22 ESE 16 26 29.89 1012 10 16 0.00 0.00
7:53 pm 19:53 Sunny 99 37.2 51 10.6 20 20 ESE 6 9 29.88 1012 10 16 0.00 0.00
8:53 pm 20:53 Sunny 96 35.6 53 11.7 23 23 SE 6 9 29.89 1012 10 16 0.00 0.00
9:53 pm 21:53 Clear 94 34.4 54 12.2 26 26 E 3 6 29.91 1013 10 16 0.00 0.00
10:53 pm 22:53 Clear 90 32.2 55 12.8 31 31 E 3 6 29.94 1014 10 16 0.00 0.00
11:53 pm 23:53 Clear 91 32.8 55 12.8 30 30 SE 5 7 29.95 1014 10 16 0.00 0.00

Powered by AerisWeather